Location: Risskov
(56.1972°N, 10.2480°E)
Time: 00:13:54
(UTC+00:00)

NOSS 3-4 (A) - Pass Details

Date: 05 July 2020
Orbit: 892 x 1320 km, 63.4° (Epoch: 12 July)

Event Time Altitude Azimuth Distance (km) Brightness Sun altitude
Rises 22:03:46 0° 309° (NW) 3,769 7.7 -9.3°
Reaches altitude 10° 22:06:19 10° 305° (NW) 2,871 6.8 -9.4°
Maximum altitude 22:12:56 54° 231° (SW) 1,356 4.1 -9.7°
Enters shadow 22:19:47 12° 158° (SSE) 3,011 5.4 -10.0°
